Regional Weather Roundup
Issued by NWS

Home | Current Version | Previous Version | Text Only | Print | Product List | Glossary On
Versions: 1 2 3 4 5 6 7 8 9 10 11 12 13 14 15 16 17 18 19 20 21 22 23 24 25 26 27 28 29 30 31 32 33 34 35 36 37 38 39 40 41 42 43 44 45 46 47 48 49 50
000
ASUS43 KMPX 200401
RWRMN
WEATHER ROUNDUP FOR MINNESOTA
NATIONAL WEATHER SERVICE TWIN CITIES/CHANHASSEN MN
1100 PM CDT THU OCT 19 2017


NOTE: "FAIR" INDICATES FEW OR NO CLOUDS BELOW 12,000 FEET WITH NO
SIGNIFICANT WEATHER AND/OR OBSTRUCTIONS TO VISIBILITY. N/A MEANS
CURRENT SKY AND/OR WEATHER CONDITIONS ARE NOT AVAILABLE.

MNZ060>063-068>070-200500-
   Twin Cities Metro

CITY           SKY/WX    TMP DP  RH WIND       PRES   REMARKS
TWIN CITIES    FAIR      56  41  57 SE7       29.94S
ST PAUL        FAIR      56  41  57 SE10      29.95S
CRYSTAL        FAIR      57  38  48 SE8       29.91F
BLAINE         FAIR      59  39  47 S10       29.92F
LAKEVILLE      FAIR      55  43  62 S5        29.94F
EDEN PRAIRIE   FAIR      59  42  53 S8        29.92S
SOUTH ST PAUL  FAIR      59  38  46 S6        29.94F
LAKE ELMO      FAIR      55  39  54 S7        29.96S
$$
MNZ001>005-007-008-013>017-022>024-027-028-200500-
   Northwest Minnesota

CITY           SKY/WX    TMP DP  RH WIND       PRES   REMARKS
BEMIDJI        FAIR      59  40  50 S9        29.79F
HALLOCK        FAIR      48  36  61 SE10      29.69S
ROSEAU         FAIR      52  43  71 S8        29.73S
WARROAD        FAIR      55  43  62 S5        29.74F
CROOKSTON      FAIR      55  43  62 S10       29.74R
FOSSTON        FAIR      55  41  58 S12       29.77F
DETROIT LAKES  FAIR      54  45  71 S8        29.81S
MOORHEAD       FAIR      55  46  71 SE9       29.77S
PARK RAPIDS    FAIR      55  42  61 S9        29.82F
MAHNOMEN       FAIR      57  44  61 S8        29.77F
$$
MNZ006-009>011-018-025>026-200500-
   North Central Minnesota

CITY           SKY/WX    TMP DP  RH WIND       PRES   REMARKS
BAUDETTE       FAIR      55  39  54 S7        29.76S
FLAG ISLAND    FAIR      52  46  82 S8        29.72S
INTL FALLS     FAIR      56  35  45 S5        29.79F
WASKISH        FAIR      59  39  47 S7        29.78S
BIG FORK       FAIR      59  37  44 S8        29.82F
LONGVILLE      FAIR      59  39  47 S8        29.84S
GRAND RAPIDS   FAIR      58  37  45 S9        29.87S
CRANE LAKE     FAIR      55  34  44 S5        29.85S
ORR            FAIR      54  32  43 SE6       29.82F
COOK           FAIR      59  34  38 S6        29.86S
WALKER         FAIR      60  41  49 S7        29.82S
$$
MNZ012-019>021-037-200500-
   Northeast Minnesota

CITY           SKY/WX    TMP DP  RH WIND       PRES   REMARKS
DULUTH         FAIR      58  36  43 SW12      29.91S
ELY            FAIR      57  32  38 SW7       29.88S
HIBBING        FAIR      38  34  85 CALM      29.87F
EVELETH        FAIR      40  38  93 CALM      29.90S
DULUTH HARBOR  FAIR      54  46  76 SW5       29.92S
TWO HARBORS    FAIR      45  37  76 CALM      29.90S
SILVER BAY     FAIR      39  36  87 CALM      29.90S
GRAND MARAIS     N/A     42  37  82 CALM      29.91S
G MARAIS ARPRT FAIR      48  30  49 S5        29.93S
$$
MNZ029>031-032-039>041-046>048-054>057-064-200500-
   West Central Minnesota

CITY           SKY/WX    TMP DP  RH WIND       PRES   REMARKS
FERGUS FALLS   FAIR      55  46  71 S10       29.81F
WHEATON        FAIR      54  45  71 SE10      29.81S
MORRIS         FAIR      55  46  71 SE9       29.82S
ALEXANDRIA     FAIR      60  45  57 S12       29.86S
ELBOW LAKE     FAIR      54  45  72 E8        29.82F
WADENA         FAIR      55  45  67 S7        29.83S
GLENWOOD       FAIR      55  46  71 S7        29.86F
APPLETON       FAIR      59  46  63 SE6       29.82F
BENSON         FAIR      57  45  62 S9        29.85F
ORTONVILLE     FAIR      54  46  76 NE7       29.81S
MADISON        FAIR      55  46  71 S6        29.82F
WILLMAR        FAIR      54  46  76 SE5       29.88S
$$
MNZ033>034-036-042>043-049>051-058-059-200500-
   Central Minnesota

CITY           SKY/WX    TMP DP  RH WIND       PRES   REMARKS
ST CLOUD       FAIR      57  43  59 S8        29.89S
SAUK CENTRE    FAIR      49  42  77 SE6       29.87F
PAYNESVILLE    FAIR      59  46  62 S8        29.88S
AITKIN         FAIR      57  39  51 S9        29.86F
PINE RIVER     FAIR      50  39  66 S6        29.89S
BRAINERD       FAIR      57  39  51 S10       29.87F
STAPLES        FAIR      54  41  62 S7        29.85S
LONG PRAIRIE   FAIR      52  43  71 SE6       29.87F
LITTLE FALLS   FAIR      54  32  43 SE5       29.88F
LITCHFIELD     FAIR      59  46  63 S3        29.89S
BUFFALO        FAIR      58  41  53 SE6       29.91F
MAPLE LAKE     FAIR      57  44  61 S7        29.90F
HUTCHINSON     FAIR      58  48  69 S3        29.91S
$$
MNZ037-044-045-052-053-200500-
   East Central Minnesota

CITY           SKY/WX    TMP DP  RH WIND       PRES   REMARKS
PRINCETON      FAIR      57  41  54 SE7       29.90S
MORA           FAIR      45  36  70 CALM      29.93R
CAMBRIDGE      FAIR      61  43  51 S8        29.91S
RUSH CITY      FAIR      56  38  49 S7        29.92S
MOOSE LAKE     FAIR      55  36  47 S8        29.89S
HINCKLEY       FAIR      55  37  50 S3        29.92S
CLOQUET        FAIR      57  32  38 S5        29.91S
MCGREGOR       FAIR      54  36  50 S3        29.89S
$$
MNZ071>073-080-081-089-090-097-098-200500-
   Southwest Minnesota

CITY           SKY/WX    TMP DP  RH WIND       PRES   REMARKS
MONTEVIDEO     FAIR      54  46  76 S5        29.84F
GRANITE FALLS  FAIR      58  49  73 SE8       29.86S HAZE
CANBY          FAIR      68  50  52 SW18G25   29.82S
MARSHALL       FAIR      64  50  60 S20G28    29.84F
REDWOOD FALLS  FAIR      58  47  66 SE8       29.87S
OLIVIA         FAIR      55  46  71 S9        29.86F
PIPESTONE      FAIR      63  50  63 S9        29.89S
WORTHINGTON    FAIR      57  49  74 S7        29.92F
JACKSON        FAIR      59  50  72 S10       29.94S
TRACY          FAIR      63  51  66 S21G26    29.87S
SLAYTON        FAIR      61  51  69 S9        29.91F
$$
MNZ065>067-074>077-082>085-091>093-200500-
   South Central Minnesota

CITY           SKY/WX    TMP DP  RH WIND       PRES   REMARKS
MANKATO        FAIR      59  48  67 S9        29.94S
NEW ULM        FAIR      59  46  63 S12       29.91S
ST JAMES       FAIR      61  50  67 S13       29.93S
FAIRMONT       FAIR      55  49  80 S9        29.95S
GLENCOE        FAIR      60  46  61 S5        29.90S
FARIBAULT      FAIR      59  45  58 S10       29.96S
OWATONNA       FAIR      61  46  59 S16G22    29.96S
WASECA         FAIR      61  46  59 S13G20    29.96F
$$
MNZ078>079-086>088-094>096-200500-
   Southeast Minnesota

CITY           SKY/WX    TMP DP  RH WIND       PRES   REMARKS
ROCHESTER      FAIR      56  44  64 S13       30.01S
RED WING       FAIR      57  34  41 SE7       29.96F
STANTON        FAIR      60  42  51 S9        29.94S
DODGE CENTER   FAIR      57  45  62 S15       29.98F
WINONA         FAIR      57  39  51 SE7       30.01F
AUSTIN         FAIR      55  45  67 S7        30.00S
PRESTON        FAIR      54  41  61 S8        30.03S
$$
ABBREVIATIONS USED IN REMARKS
   TC - TEMPERATURES IN CELSIUS
  WCI - WIND CHILL INDEX
   HX - HEAT INDEX
  VSB - VISIBILITY
$$



USA.gov is the U.S. government's official web portal to all federal, state and local government web resources and services.